Location: Baix
(44.7118°N, 4.7648°E)
Time: 06:29:46
(UTC+00:00)

Vanguard 1 - Pass Details

Date: 29 November 2020
Orbit: 648 x 3834 km, 34.3° (Epoch: 21 January)

Event Time Altitude Azimuth Distance (km) Brightness Sun altitude
Rises 03:58:54 0° 216° (SW) 3,224 - -30.8°
Reaches altitude 10° 04:01:24 10° 201° (SSW) 2,508 - -30.4°
Exits shadow 04:03:11 18° 185° (S) 2,177 11.8 -30.1°
Maximum altitude 04:06:03 24° 148° (SSE) 2,136 12.0 -29.6°
Drops below altitude 10° 04:12:50 10° 100° (E) 3,800 14.0 -28.4°
Sets 04:17:44 0° 89° (E) 5,386 15.1 -27.5°
